Voltar ao catálogo

STARLINK-5984

AtivoComunicaçõesSSO
NORAD 56329·PAYLOAD·🇺🇸 United States

Lançado Apr 27, 2023 de Vandenberg Space Force Base

Loading…

Próximas Passagens (próximas 24 horas)

TLE

AtualizadoSource: CelesTrak SupGP

Época: Sep 14, 2026, 22:23 UTC

1 56329C 23058N   26257.93312500  .00053606  00000+0  16642-2 0  2575
2 56329  97.2849 254.8090 0001813  95.6446 303.3670 15.33407998    13

Acompanhe STARLINK-5984 em tempo real com AllMySat

Download on the App Store